User: anonymous   Login
Location: Unspecified
(0.0000°N, 0.0000°E)
Time: 14:06:14
(UTC+00:00)
Language:

RAX-2 - Orbit

View from above orbital plane
View from above orbital plane
View from above satellite
View from above satellite

Ground track
Ground track

The orbit data is extracted from the following two-line orbital elements,

1 37853U 11061D   14303.16680156  .00010101  00000-0  66762-3 0  9497
2 37853 101.7027 037.3007 0210512 025.7994 037.5224 14.91365550162767
Epoch (UTC): 30 October 2014 04:00:11
Eccentricity: 0.0210512
inclination: 101.7027°
perigee height: 447 km
apogee height: 740 km
right ascension of ascending node: 37.3007°
argument of perigee: 25.7994°
revolutions per day: 14.91365550
mean anomaly at epoch: 37.5224°
orbit number at epoch: 16276

The dashed part of the orbit path shows where the satellite is in the earth's shadow,  

DLR